WZZ22ZY LROP-LJLJ

Flight info

Callsign WZZ22ZY
Flight time 1h 22m
Altitude 28000
Route POLUN1K/08L POLUN Y88 ANASA/N0410F200 Y88 VEBAR/N0456F360 DCT LURID/N0452F380 DCT MOSAV DCT MAGAM MAGAM2L
Aircraft A321/M-SDE3FGHIRWY/LB1

Departure

Time 2026-04-24 19:07
Airport Bucharest Henri Coandă International Airport (LROP)

Arrival

Time 2026-04-24 20:29
Airport Ljubljana Jože Pučnik Airport (LJLJ)
Time Latitude Longitude Altitude Speed Heading
2026-04-24 18:54 44.56876 26.08993 307 ft 0 kts 179°
2026-04-24 18:56 44.56881 26.08993 307 ft 2 kts 179°
2026-04-24 18:57 44.56895 26.08993 307 ft 2 kts 182°
2026-04-24 18:57 44.56908 26.08996 307 ft 2 kts 194°
2026-04-24 18:57 44.56922 26.09002 307 ft 2 kts 202°
2026-04-24 18:57 44.56935 26.09011 307 ft 2 kts 212°
2026-04-24 18:58 44.56947 26.09023 307 ft 2 kts 221°
2026-04-24 18:58 44.56957 26.09038 307 ft 2 kts 231°
2026-04-24 18:58 44.56966 26.09055 307 ft 2 kts 240°
2026-04-24 18:58 44.56972 26.09074 307 ft 2 kts 250°
2026-04-24 18:59 44.56976 26.09093 307 ft 2 kts 259°
2026-04-24 18:59 44.56977 26.09102 307 ft 1 kts 264°
2026-04-24 18:59 44.56977 26.09108 307 ft 0 kts 265°
2026-04-24 19:00 44.56977 26.09107 307 ft 0 kts 265°
2026-04-24 19:01 44.56971 26.09068 307 ft 11 kts 256°
2026-04-24 19:02 44.56946 26.08884 307 ft 21 kts 262°
2026-04-24 19:02 44.56932 26.08711 306 ft 13 kts 263°
2026-04-24 19:02 44.56929 26.08602 308 ft 9 kts 286°
2026-04-24 19:02 44.56971 26.08544 310 ft 9 kts 340°
2026-04-24 19:03 44.57034 26.08530 310 ft 10 kts 354°
2026-04-24 19:03 44.57123 26.08518 312 ft 13 kts 354°
2026-04-24 19:03 44.57208 26.08506 314 ft 13 kts 354°
2026-04-24 19:03 44.57293 26.08495 314 ft 13 kts 354°
2026-04-24 19:04 44.57379 26.08482 314 ft 13 kts 354°
2026-04-24 19:04 44.57462 26.08470 314 ft 9 kts 354°
2026-04-24 19:04 44.57494 26.08465 314 ft 0 kts 354°
2026-04-24 19:05 44.57495 26.08465 314 ft 0 kts 354°
2026-04-24 19:05 44.57534 26.08459 314 ft 13 kts 354°
2026-04-24 19:05 44.57634 26.08450 314 ft 14 kts 14°
2026-04-24 19:06 44.57674 26.08562 314 ft 15 kts 84°
2026-04-24 19:06 44.57698 26.08876 314 ft 68 kts 83°
2026-04-24 19:06 44.57775 26.09880 317 ft 150 kts 83°
2026-04-24 19:06 44.57884 26.11469 808 ft 179 kts 83°
2026-04-24 19:07 44.57991 26.13155 1835 ft 177 kts 81°
2026-04-24 19:07 44.58088 26.14703 2740 ft 168 kts 81°
2026-04-24 19:07 44.58184 26.16243 3229 ft 175 kts 81°
2026-04-24 19:07 44.58291 26.17921 3723 ft 183 kts 82°
2026-04-24 19:08 44.58406 26.19699 4283 ft 188 kts 83°
2026-04-24 19:08 44.58535 26.21505 4906 ft 187 kts 80°
2026-04-24 19:08 44.58723 26.23212 5659 ft 175 kts 79°
2026-04-24 19:08 44.58907 26.24795 6117 ft 168 kts 77°
2026-04-24 19:09 44.58990 26.26353 6009 ft 179 kts 104°
2026-04-24 19:09 44.58335 26.27899 5881 ft 217 kts 139°
2026-04-24 19:09 44.56979 26.28832 5750 ft 251 kts 171°
2026-04-24 19:09 44.55164 26.28628 5917 ft 271 kts 204°
2026-04-24 19:10 44.53791 26.27333 6752 ft 261 kts 230°
2026-04-24 19:10 44.52995 26.25495 7543 ft 254 kts 250°
2026-04-24 19:10 44.52482 26.23425 8171 ft 257 kts 255°
2026-04-24 19:10 44.52110 26.21271 8758 ft 260 kts 265°
2026-04-24 19:11 44.51987 26.19003 9397 ft 262 kts 270°
2026-04-24 19:11 44.51936 26.16882 9993 ft 264 kts 271°
2026-04-24 19:11 44.51886 26.14568 10590 ft 267 kts 271°
2026-04-24 19:11 44.51819 26.12087 11195 ft 271 kts 271°
2026-04-24 19:12 44.51734 26.09461 11814 ft 274 kts 271°
2026-04-24 19:12 44.51638 26.06794 12427 ft 278 kts 271°
2026-04-24 19:12 44.51538 26.04228 12991 ft 281 kts 271°
2026-04-24 19:12 44.51434 26.01679 13548 ft 284 kts 271°
2026-04-24 19:13 44.51361 25.99928 13838 ft 290 kts 271°
2026-04-24 19:13 44.51205 25.96100 14201 ft 310 kts 271°
2026-04-24 19:13 44.51076 25.93012 14478 ft 326 kts 271°
2026-04-24 19:13 44.50935 25.89759 14751 ft 341 kts 271°
2026-04-24 19:14 44.50789 25.86452 15009 ft 356 kts 271°
2026-04-24 19:14 44.50639 25.83058 15255 ft 370 kts 271°
2026-04-24 19:14 44.50486 25.79652 15486 ft 383 kts 270°
2026-04-24 19:14 44.50325 25.76120 15774 ft 395 kts 270°
2026-04-24 19:15 44.50156 25.72427 15943 ft 407 kts 270°
2026-04-24 19:15 44.49978 25.68582 16204 ft 418 kts 270°
2026-04-24 19:15 44.49790 25.64566 16628 ft 424 kts 270°
2026-04-24 19:15 44.49594 25.60441 17144 ft 427 kts 270°
2026-04-24 19:16 44.49197 25.52139 18081 ft 434 kts 271°
2026-04-24 19:16 44.48997 25.47969 18520 ft 438 kts 271°
2026-04-24 19:16 44.48793 25.43750 18984 ft 441 kts 271°
2026-04-24 19:17 44.48586 25.39457 19431 ft 444 kts 271°
2026-04-24 19:17 44.48373 25.35125 19852 ft 447 kts 271°
2026-04-24 19:17 44.48162 25.30843 20271 ft 450 kts 270°
2026-04-24 19:17 44.47946 25.26490 20664 ft 453 kts 270°
2026-04-24 19:18 44.47726 25.22106 21060 ft 456 kts 270°
2026-04-24 19:18 44.47501 25.17637 21453 ft 459 kts 270°
2026-04-24 19:18 44.47278 25.13243 21822 ft 462 kts 270°
2026-04-24 19:18 44.47049 25.08779 22183 ft 465 kts 270°
2026-04-24 19:19 44.46817 25.04285 22539 ft 468 kts 270°
2026-04-24 19:19 44.46579 24.99733 22893 ft 470 kts 270°
2026-04-24 19:19 44.46342 24.95194 23262 ft 472 kts 270°
2026-04-24 19:19 44.46099 24.90644 23774 ft 471 kts 270°
2026-04-24 19:20 44.45856 24.86089 24318 ft 468 kts 270°
2026-04-24 19:20 44.45616 24.81640 24812 ft 467 kts 270°
2026-04-24 19:20 44.45372 24.77125 25306 ft 466 kts 270°
2026-04-24 19:20 44.45127 24.72613 25766 ft 465 kts 270°
2026-04-24 19:21 44.44881 24.68136 26221 ft 465 kts 270°
2026-04-24 19:21 44.44634 24.63656 26654 ft 465 kts 270°
2026-04-24 19:21 44.44389 24.59218 27010 ft 466 kts 270°
2026-04-24 19:21 44.44137 24.54724 27339 ft 468 kts 270°
2026-04-24 19:22 44.43964 24.51662 27578 ft 469 kts 270°
2026-04-24 19:22 44.43624 24.45633 27998 ft 471 kts 270°
2026-04-24 19:22 44.43103 24.36569 28013 ft 472 kts 270°
2026-04-24 19:23 44.42571 24.27455 28012 ft 473 kts 269°
2026-04-24 19:23 44.42034 24.18358 28012 ft 473 kts 269°
2026-04-24 19:24 44.41485 24.09193 28014 ft 473 kts 269°
2026-04-24 19:24 44.40929 24.00037 28014 ft 474 kts 269°
2026-04-24 19:25 44.40368 23.90916 28013 ft 473 kts 269°
2026-04-24 19:25 44.39801 23.81808 28012 ft 473 kts 269°
2026-04-24 19:26 44.39225 23.72667 28011 ft 473 kts 269°
2026-04-24 19:26 44.38638 23.63487 28013 ft 473 kts 269°
2026-04-24 19:27 44.38045 23.54322 28012 ft 473 kts 269°
2026-04-24 19:27 44.37450 23.45238 28014 ft 473 kts 269°
2026-04-24 19:28 44.36846 23.36123 28015 ft 473 kts 269°
2026-04-24 19:28 44.36230 23.26954 28017 ft 474 kts 268°
2026-04-24 19:29 44.35298 23.13281 28016 ft 475 kts 268°
2026-04-24 19:30 44.34664 23.04113 28017 ft 474 kts 268°
2026-04-24 19:30 44.34024 22.94968 28019 ft 474 kts 268°
2026-04-24 19:31 44.33377 22.85826 28029 ft 474 kts 268°
2026-04-24 19:31 44.32728 22.76763 28031 ft 474 kts 268°
2026-04-24 19:32 44.32061 22.67565 28036 ft 475 kts 268°
2026-04-24 19:32 44.31413 22.58415 28046 ft 475 kts 269°
2026-04-24 19:33 44.31254 22.49286 28048 ft 472 kts 275°
2026-04-24 19:33 44.31400 22.40197 28053 ft 471 kts 275°
2026-04-24 19:34 44.31548 22.31098 28057 ft 472 kts 275°
2026-04-24 19:34 44.31678 22.21973 28061 ft 472 kts 274°
2026-04-24 19:35 44.31798 22.12819 28068 ft 472 kts 275°
2026-04-24 19:35 44.31909 22.03723 28071 ft 472 kts 274°
2026-04-24 19:36 44.32013 21.94611 28075 ft 472 kts 274°
2026-04-24 19:36 44.32109 21.85461 28074 ft 472 kts 274°
2026-04-24 19:37 44.32197 21.76317 28074 ft 473 kts 274°
2026-04-24 19:37 44.32278 21.67192 28076 ft 473 kts 274°
2026-04-24 19:38 44.32353 21.58004 28075 ft 472 kts 274°
2026-04-24 19:38 44.32419 21.48908 28076 ft 472 kts 274°
2026-04-24 19:39 44.32478 21.39770 28075 ft 473 kts 274°
2026-04-24 19:39 44.32528 21.30589 28076 ft 474 kts 273°
2026-04-24 19:40 44.32571 21.21406 28075 ft 474 kts 273°
2026-04-24 19:40 44.32610 21.12223 28073 ft 475 kts 273°
2026-04-24 19:41 44.32643 21.03083 28075 ft 474 kts 273°
2026-04-24 19:41 44.32666 20.93942 28075 ft 473 kts 273°
2026-04-24 19:42 44.32682 20.84709 28081 ft 478 kts 273°
2026-04-24 19:42 44.32694 20.75290 28083 ft 490 kts 273°
2026-04-24 19:43 44.32692 20.65866 28086 ft 491 kts 273°
2026-04-24 19:43 44.32682 20.56323 28088 ft 491 kts 273°
2026-04-24 19:44 44.32665 20.46827 28092 ft 491 kts 273°
2026-04-24 19:44 44.32641 20.37325 28093 ft 491 kts 273°
2026-04-24 19:45 44.32608 20.27834 28094 ft 492 kts 272°
2026-04-24 19:45 44.32567 20.18276 28097 ft 491 kts 272°
2026-04-24 19:46 44.32519 20.08777 28100 ft 491 kts 272°
2026-04-24 19:46 44.32461 19.99289 28098 ft 491 kts 272°
2026-04-24 19:47 44.32178 19.89759 28093 ft 494 kts 265°
2026-04-24 19:47 44.30540 19.80438 28105 ft 499 kts 253°
2026-04-24 19:48 44.28089 19.71436 28106 ft 500 kts 251°
2026-04-24 19:48 44.24347 19.57925 28116 ft 500 kts 251°
2026-04-24 19:49 44.19394 19.39837 28130 ft 500 kts 251°
2026-04-24 19:50 44.15116 19.21627 28118 ft 494 kts 269°
2026-04-24 19:51 44.16728 19.12587 28139 ft 480 kts 303°
2026-04-24 19:51 44.18698 19.08911 28154 ft 477 kts 312°
2026-04-24 19:52 44.25013 18.98245 28146 ft 477 kts 312°
2026-04-24 19:52 44.29182 18.91065 28142 ft 476 kts 311°
2026-04-24 19:53 44.33326 18.83850 28137 ft 476 kts 311°
2026-04-24 19:54 44.39486 18.73059 28123 ft 475 kts 311°
2026-04-24 19:54 44.43589 18.65843 28122 ft 475 kts 311°
2026-04-24 19:55 44.47004 18.59820 28123 ft 475 kts 311°
2026-04-24 19:55 44.51796 18.51353 28122 ft 475 kts 311°
2026-04-24 19:56 44.55864 18.44143 28122 ft 475 kts 311°
2026-04-24 19:56 44.59941 18.36900 28122 ft 474 kts 311°
2026-04-24 19:57 44.64021 18.29634 28122 ft 474 kts 310°
2026-04-24 19:57 44.68084 18.22376 28121 ft 475 kts 310°
2026-04-24 19:58 44.72160 18.15080 28126 ft 475 kts 310°
2026-04-24 19:58 44.76230 18.07775 28119 ft 475 kts 310°
2026-04-24 19:59 44.80296 18.00458 28118 ft 474 kts 310°
2026-04-24 19:59 44.84337 17.93168 28119 ft 474 kts 310°
2026-04-24 20:00 44.88399 17.85821 28117 ft 474 kts 310°
2026-04-24 20:00 44.92432 17.78507 28116 ft 475 kts 310°
2026-04-24 20:01 44.96488 17.71132 28117 ft 475 kts 310°
2026-04-24 20:01 45.00542 17.63741 28116 ft 475 kts 310°
2026-04-24 20:02 45.03886 17.57630 28111 ft 474 kts 310°
2026-04-24 20:02 45.08595 17.49000 28110 ft 474 kts 310°
2026-04-24 20:03 45.12779 17.41753 28105 ft 472 kts 315°
2026-04-24 20:03 45.17583 17.35479 28105 ft 469 kts 323°
2026-04-24 20:04 45.22732 17.29815 28106 ft 469 kts 324°
2026-04-24 20:04 45.27897 17.24193 28106 ft 469 kts 324°
2026-04-24 20:05 45.33041 17.18554 28106 ft 469 kts 324°
2026-04-24 20:05 45.38211 17.12859 28107 ft 469 kts 324°
2026-04-24 20:06 45.43344 17.07186 28104 ft 469 kts 324°
2026-04-24 20:06 45.48454 17.01521 28105 ft 468 kts 324°
2026-04-24 20:07 45.52731 16.96704 28098 ft 469 kts 321°
2026-04-24 20:07 45.55712 16.92220 28096 ft 473 kts 310°
2026-04-24 20:07 45.57549 16.88363 28098 ft 475 kts 302°
2026-04-24 20:08 45.60542 16.79921 28093 ft 477 kts 298°
2026-04-24 20:08 45.63398 16.71439 28089 ft 477 kts 298°
2026-04-24 20:09 45.66286 16.62899 27938 ft 478 kts 298°
2026-04-24 20:09 45.67723 16.58666 27372 ft 477 kts 298°
2026-04-24 20:09 45.69165 16.54417 26761 ft 465 kts 298°
2026-04-24 20:09 45.70531 16.50381 26189 ft 454 kts 298°
2026-04-24 20:10 45.71911 16.46308 25613 ft 453 kts 298°
2026-04-24 20:10 45.73269 16.42296 25046 ft 454 kts 298°
2026-04-24 20:10 45.74647 16.38221 24476 ft 455 kts 298°
2026-04-24 20:10 45.76012 16.34175 23914 ft 456 kts 297°
2026-04-24 20:11 45.77395 16.30076 23377 ft 458 kts 296°
2026-04-24 20:11 45.78793 16.25919 22803 ft 455 kts 297°
2026-04-24 20:11 45.80149 16.21873 22245 ft 450 kts 296°
2026-04-24 20:11 45.81492 16.17857 21683 ft 446 kts 297°
2026-04-24 20:12 45.82840 16.13828 21130 ft 443 kts 297°
2026-04-24 20:12 45.84140 16.09932 20577 ft 439 kts 297°
2026-04-24 20:12 45.85458 16.05985 20025 ft 436 kts 297°
2026-04-24 20:12 45.86769 16.02049 19481 ft 432 kts 297°
2026-04-24 20:13 45.88054 15.98186 18942 ft 428 kts 297°
2026-04-24 20:13 45.89333 15.94335 18379 ft 424 kts 297°
2026-04-24 20:13 45.90597 15.90526 17835 ft 421 kts 297°
2026-04-24 20:13 45.91843 15.86765 17298 ft 418 kts 297°
2026-04-24 20:14 45.93080 15.83024 16775 ft 416 kts 297°
2026-04-24 20:14 45.94325 15.79255 16218 ft 413 kts 297°
2026-04-24 20:14 45.95541 15.75569 15669 ft 410 kts 297°
2026-04-24 20:14 45.96672 15.71673 15111 ft 409 kts 292°
2026-04-24 20:15 45.97517 15.67750 14564 ft 408 kts 287°
2026-04-24 20:15 45.98128 15.63652 13997 ft 406 kts 283°
2026-04-24 20:15 45.98622 15.59699 13462 ft 403 kts 282°
2026-04-24 20:15 45.99097 15.55745 12929 ft 400 kts 282°
2026-04-24 20:16 45.99564 15.51861 12397 ft 394 kts 283°
2026-04-24 20:16 46.00029 15.47994 11863 ft 388 kts 283°
2026-04-24 20:16 46.00489 15.44217 11311 ft 382 kts 283°
2026-04-24 20:16 46.00942 15.40497 10770 ft 377 kts 283°
2026-04-24 20:17 46.01393 15.36787 10214 ft 371 kts 284°
2026-04-24 20:17 46.02282 15.29497 9113 ft 362 kts 283°
2026-04-24 20:17 46.02716 15.25940 8562 ft 358 kts 282°
2026-04-24 20:18 46.03000 15.23611 8198 ft 355 kts 282°
2026-04-24 20:18 46.03555 15.19014 7477 ft 351 kts 281°
2026-04-24 20:18 46.03967 15.15583 6927 ft 346 kts 281°
2026-04-24 20:18 46.04367 15.12241 6359 ft 330 kts 280°
2026-04-24 20:19 46.04749 15.09045 5804 ft 314 kts 280°
2026-04-24 20:19 46.05108 15.06014 5258 ft 301 kts 280°
2026-04-24 20:19 46.05458 15.03058 4702 ft 290 kts 279°
2026-04-24 20:19 46.05793 15.00231 4203 ft 279 kts 279°
2026-04-24 20:20 46.06108 14.97563 4007 ft 257 kts 279°
2026-04-24 20:20 46.06393 14.95146 4004 ft 238 kts 279°
2026-04-24 20:20 46.06668 14.92804 4007 ft 227 kts 279°
2026-04-24 20:20 46.06918 14.90678 4001 ft 212 kts 279°
2026-04-24 20:21 46.07161 14.88601 4019 ft 209 kts 279°
2026-04-24 20:21 46.07405 14.86520 4030 ft 208 kts 279°
2026-04-24 20:21 46.07566 14.85141 4032 ft 208 kts 279°
2026-04-24 20:21 46.07803 14.83108 4048 ft 206 kts 279°
2026-04-24 20:22 46.08033 14.81134 4103 ft 188 kts 279°
2026-04-24 20:22 46.08245 14.79325 4051 ft 178 kts 279°
2026-04-24 20:22 46.08479 14.77587 4041 ft 176 kts 282°
2026-04-24 20:22 46.08777 14.75877 4041 ft 176 kts 284°
2026-04-24 20:23 46.09086 14.74183 4040 ft 177 kts 284°
2026-04-24 20:23 46.09419 14.72484 4045 ft 169 kts 286°
2026-04-24 20:23 46.09786 14.70983 4000 ft 155 kts 293°
2026-04-24 20:23 46.10263 14.69626 4039 ft 149 kts 300°
2026-04-24 20:24 46.10810 14.68393 4031 ft 146 kts 305°
2026-04-24 20:24 46.11413 14.67197 4034 ft 146 kts 306°
2026-04-24 20:24 46.12037 14.65990 4031 ft 146 kts 306°
2026-04-24 20:24 46.12655 14.64791 4030 ft 146 kts 306°
2026-04-24 20:25 46.13263 14.63606 3883 ft 146 kts 306°
2026-04-24 20:25 46.13857 14.62440 3693 ft 145 kts 306°
2026-04-24 20:25 46.14456 14.61264 3507 ft 144 kts 306°
2026-04-24 20:25 46.15049 14.60099 3317 ft 144 kts 305°
2026-04-24 20:26 46.15642 14.58933 3123 ft 143 kts 306°
2026-04-24 20:26 46.16239 14.57760 2931 ft 143 kts 306°
2026-04-24 20:26 46.16833 14.56595 2743 ft 143 kts 306°
2026-04-24 20:26 46.17424 14.55436 2553 ft 143 kts 306°
2026-04-24 20:27 46.18010 14.54285 2364 ft 142 kts 307°
2026-04-24 20:27 46.18603 14.53125 2170 ft 141 kts 307°
2026-04-24 20:27 46.19190 14.51975 1978 ft 141 kts 307°
2026-04-24 20:27 46.19768 14.50844 1790 ft 140 kts 307°
2026-04-24 20:28 46.20352 14.49702 1604 ft 140 kts 307°
2026-04-24 20:28 46.20935 14.48560 1418 ft 140 kts 307°
2026-04-24 20:28 46.21513 14.47431 1241 ft 139 kts 307°
2026-04-24 20:28 46.22059 14.46365 1220 ft 116 kts 307°
2026-04-24 20:29 46.22329 14.45838 1233 ft 82 kts 307°
2026-04-24 20:29 46.22574 14.45440 1245 ft 14 kts 321°
2026-04-24 20:29 46.22663 14.45368 1249 ft 14 kts 338°
2026-04-24 20:29 46.22737 14.45338 1252 ft 5 kts 348°
2026-04-24 20:30 46.22767 14.45330 1253 ft 3 kts 349°
2026-04-24 20:30 46.22780 14.45326 1254 ft 0 kts 349°
2026-04-24 20:30 46.22785 14.45325 1254 ft 2 kts 349°
2026-04-24 20:30 46.22818 14.45318 1255 ft 5 kts
2026-04-24 20:31 46.22865 14.45344 1257 ft 6 kts 34°
2026-04-24 20:31 46.22907 14.45386 1260 ft 7 kts 36°
2026-04-24 20:31 46.22952 14.45399 1263 ft 6 kts 333°
2026-04-24 20:31 46.22971 14.45388 1264 ft 3 kts
2026-04-24 20:32 46.23012 14.45411 1266 ft 5 kts 33°
2026-04-24 20:32 46.23023 14.45423 1267 ft 0 kts 36°